TimeCDT,TemperatureF,Dew PointF,Humidity,Sea Level PressureIn,VisibilityMPH,Wind Direction,Wind SpeedMPH,Gust SpeedMPH,PrecipitationIn,Events,Conditions,WindDirDegrees,DateUTC
12:15 AM,55.4,48.2,77,30.11,10.0,ESE,8.1,-,N/A,,Overcast,120,2013-03-30 05:15:00
12:55 AM,53.6,46.4,77,30.10,10.0,SE,8.1,-,N/A,,Clear,130,2013-03-30 05:55:00
1:15 AM,53.6,46.4,77,30.09,10.0,SE,9.2,-,N/A,,Scattered Clouds,130,2013-03-30 06:15:00
1:35 AM,53.6,46.4,77,30.08,10.0,SE,9.2,-,N/A,,Mostly Cloudy,130,2013-03-30 06:35:00
1:55 AM,53.6,48.2,82,30.08,10.0,SE,10.4,-,N/A,,Overcast,130,2013-03-30 06:55:00
2:15 AM,53.6,48.2,82,30.08,10.0,SE,10.4,-,N/A,,Overcast,130,2013-03-30 07:15:00
2:35 AM,53.6,48.2,82,30.07,10.0,SE,10.4,-,N/A,,Overcast,130,2013-03-30 07:35:00
2:55 AM,53.6,50.0,88,30.08,10.0,SE,9.2,-,N/A,,Overcast,140,2013-03-30 07:55:00
3:15 AM,53.6,50.0,88,30.07,10.0,SE,9.2,-,N/A,,Overcast,140,2013-03-30 08:15:00
3:35 AM,53.6,50.0,88,30.06,10.0,SE,9.2,-,N/A,,Overcast,130,2013-03-30 08:35:00
3:55 AM,53.6,50.0,88,30.05,10.0,SE,12.7,-,N/A,,Mostly Cloudy,130,2013-03-30 08:55:00
4:15 AM,53.6,50.0,88,30.04,10.0,SE,12.7,18.4,N/A,,Mostly Cloudy,140,2013-03-30 09:15:00
4:35 AM,53.6,50.0,88,30.03,10.0,SE,11.5,-,N/A,,Mostly Cloudy,130,2013-03-30 09:35:00
4:55 AM,53.6,50.0,88,30.02,10.0,ESE,11.5,-,N/A,,Mostly Cloudy,120,2013-03-30 09:55:00
5:15 AM,51.8,50.0,94,30.02,10.0,ESE,10.4,-,N/A,,Scattered Clouds,120,2013-03-30 10:15:00
5:35 AM,51.8,50.0,94,30.02,10.0,SE,10.4,16.1,N/A,,Clear,130,2013-03-30 10:35:00
5:55 AM,51.8,50.0,94,30.02,10.0,SE,10.4,-,N/A,,Clear,130,2013-03-30 10:55:00
6:15 AM,51.8,50.0,94,30.02,10.0,SE,10.4,-,N/A,Thunderstorm,Clear,130,2013-03-30 11:15:00
6:35 AM,51.8,50.0,94,30.02,10.0,SE,10.4,-,N/A,Thunderstorm,Scattered Clouds,130,2013-03-30 11:35:00
6:55 AM,51.8,50.0,94,30.02,10.0,SE,9.2,-,N/A,,Overcast,130,2013-03-30 11:55:00
7:15 AM,51.8,50.0,94,30.01,10.0,ESE,9.2,-,N/A,Rain-Thunderstorm,Light Thunderstorms and Rain,120,2013-03-30 12:15:00
7:35 AM,51.8,50.0,94,30.03,7.0,SSE,5.8,-,0.01,Rain,Rain,150,2013-03-30 12:35:00
7:55 AM,51.8,50.0,94,30.03,10.0,SSE,6.9,-,0.03,Rain,Light Rain,160,2013-03-30 12:55:00
8:15 AM,51.8,50.0,94,30.04,10.0,SSE,6.9,-,0.01,Rain,Light Rain,150,2013-03-30 13:15:00
8:35 AM,51.8,50.0,94,30.05,7.0,Calm,Calm,-,0.03,Rain,Rain,0,2013-03-30 13:35:00
8:55 AM,51.8,50.0,94,30.06,5.0,SSW,4.6,-,0.08,Rain,Rain,200,2013-03-30 13:55:00
9:15 AM,51.8,50.0,94,30.07,3.0,SSW,8.1,-,0.05,Rain,Heavy Rain,210,2013-03-30 14:15:00
9:35 AM,50.0,50.0,100,30.05,2.0,SSE,8.1,-,0.16,Rain,Rain,160,2013-03-30 14:35:00
9:55 AM,50.0,50.0,100,29.99,3.0,SE,17.3,-,0.19,Rain,Light Rain,130,2013-03-30 14:55:00
10:15 AM,50.0,50.0,100,29.99,5.0,SSE,17.3,23.0,0.01,Rain,Light Rain,150,2013-03-30 15:15:00
10:35 AM,50.0,50.0,100,29.97,7.0,SSE,13.8,20.7,0.01,Rain,Light Rain,150,2013-03-30 15:35:00
10:55 AM,51.8,50.0,94,29.98,7.0,SSE,11.5,17.3,0.01,,Scattered Clouds,160,2013-03-30 15:55:00
11:15 AM,53.6,51.8,94,29.97,10.0,SSE,10.4,-,N/A,,Clear,160,2013-03-30 16:15:00
11:35 AM,55.4,51.8,88,29.97,10.0,SSW,11.5,-,N/A,,Scattered Clouds,200,2013-03-30 16:35:00
11:55 AM,57.2,51.8,82,29.97,10.0,SW,10.4,-,N/A,,Mostly Cloudy,220,2013-03-30 16:55:00
12:15 PM,57.2,53.6,88,29.97,10.0,SW,9.2,-,N/A,,Overcast,230,2013-03-30 17:15:00
12:35 PM,59.0,53.6,82,29.96,10.0,SW,11.5,-,N/A,,Mostly Cloudy,220,2013-03-30 17:35:00
12:55 PM,60.8,53.6,77,29.96,10.0,SW,10.4,-,N/A,,Mostly Cloudy,220,2013-03-30 17:55:00
1:15 PM,60.8,53.6,77,29.96,10.0,WSW,10.4,-,N/A,,Mostly Cloudy,250,2013-03-30 18:15:00
1:35 PM,62.6,55.4,77,29.95,10.0,West,8.1,-,N/A,,Mostly Cloudy,260,2013-03-30 18:35:00
1:55 PM,62.6,53.6,72,29.95,10.0,WSW,10.4,-,N/A,,Scattered Clouds,250,2013-03-30 18:55:00
2:15 PM,64.4,53.6,68,29.94,10.0,SW,11.5,-,N/A,,Scattered Clouds,230,2013-03-30 19:15:00
2:35 PM,64.4,53.6,68,29.93,10.0,SSW,12.7,17.3,N/A,,Scattered Clouds,210,2013-03-30 19:35:00
2:55 PM,64.4,53.6,68,29.92,10.0,SW,9.2,-,N/A,,Scattered Clouds,220,2013-03-30 19:55:00
3:15 PM,66.2,53.6,64,29.91,10.0,SW,12.7,16.1,N/A,,Scattered Clouds,220,2013-03-30 20:15:00
3:35 PM,68.0,53.6,60,29.91,10.0,WSW,9.2,-,N/A,,Scattered Clouds,250,2013-03-30 20:35:00
3:55 PM,68.0,51.8,56,29.90,10.0,West,6.9,-,N/A,,Mostly Cloudy,260,2013-03-30 20:55:00
4:15 PM,68.0,53.6,60,29.89,10.0,SW,11.5,16.1,N/A,,Mostly Cloudy,220,2013-03-30 21:15:00
4:35 PM,68.0,53.6,60,29.88,10.0,WSW,6.9,-,N/A,,Scattered Clouds,250,2013-03-30 21:35:00
4:55 PM,68.0,53.6,60,29.88,10.0,West,5.8,-,N/A,,Mostly Cloudy,260,2013-03-30 21:55:00
5:15 PM,68.0,53.6,60,29.88,10.0,WSW,10.4,-,N/A,,Mostly Cloudy,240,2013-03-30 22:15:00
5:35 PM,68.0,53.6,60,29.87,10.0,WSW,10.4,-,N/A,,Mostly Cloudy,250,2013-03-30 22:35:00
5:55 PM,68.0,53.6,60,29.86,10.0,SW,11.5,-,N/A,,Scattered Clouds,230,2013-03-30 22:55:00
6:15 PM,64.4,53.6,68,29.87,10.0,SSW,6.9,-,N/A,,Clear,210,2013-03-30 23:15:00
6:35 PM,64.4,53.6,68,29.87,10.0,SSW,5.8,-,N/A,,Mostly Cloudy,210,2013-03-30 23:35:00
6:55 PM,64.4,55.4,73,29.87,10.0,SW,11.5,-,N/A,Thunderstorm,Overcast,230,2013-03-30 23:55:00
7:15 PM,62.6,53.6,72,29.91,10.0,NW,25.3,33.4,N/A,Thunderstorm,Mostly Cloudy,320,2013-03-31 00:15:00
7:35 PM,51.8,50.0,94,29.90,7.0,ENE,17.3,-,0.10,Rain-Thunderstorm,Heavy Thunderstorms and Rain,60,2013-03-31 00:35:00
7:55 PM,53.6,50.0,88,29.90,10.0,ESE,5.8,-,0.11,,Overcast,110,2013-03-31 00:55:00
8:15 PM,53.6,50.0,88,29.90,10.0,ESE,5.8,-,N/A,Thunderstorm,Mostly Cloudy,120,2013-03-31 01:15:00
8:35 PM,53.6,51.8,94,29.89,7.0,ESE,5.8,-,0.02,Rain-Thunderstorm,Rain,120,2013-03-31 01:35:00
8:55 PM,53.6,51.8,94,29.90,10.0,SSE,6.9,-,0.03,Rain-Thunderstorm,Light Thunderstorms and Rain,150,2013-03-31 01:55:00
9:15 PM,53.6,51.8,94,29.89,10.0,SSE,9.2,-,N/A,Rain,Light Rain,150,2013-03-31 02:15:00
9:35 PM,53.6,50.0,88,29.91,10.0,Calm,Calm,-,N/A,,Overcast,0,2013-03-31 02:35:00
9:55 PM,53.6,50.0,88,29.92,10.0,NE,4.6,-,N/A,,Overcast,40,2013-03-31 02:55:00
10:15 PM,51.8,50.0,94,29.91,7.0,ENE,5.8,-,0.02,Rain,Light Rain,70,2013-03-31 03:15:00
10:35 PM,51.8,50.0,94,29.92,10.0,SE,4.6,-,0.02,Rain,Rain,140,2013-03-31 03:35:00
10:55 PM,51.8,50.0,94,29.92,10.0,SE,3.5,-,0.03,Rain,Light Rain,140,2013-03-31 03:55:00
11:15 PM,51.8,50.0,94,29.92,10.0,South,3.5,-,N/A,,Overcast,180,2013-03-31 04:15:00
11:35 PM,51.8,51.8,100,29.92,10.0,Calm,Calm,-,N/A,,Overcast,0,2013-03-31 04:35:00
11:55 PM,51.8,50.0,94,29.91,10.0,Calm,Calm,-,N/A,,Mostly Cloudy,0,2013-03-31 04:55:00